Weather Roundup
Issued by NWS Chicago, IL

Home | Current Version | Previous Version | Graphics & Text | Print | Product List | Glossary On
Versions: 1 2 3 4 5 6 7 8 9 10 11 12 13 14 15 16 17 18 19 20 21 22 23 24 25 26 27 28 29 30 31 32 33 34 35 36 37 38 39 40 41 42 43 44 45 46 47 48 49 50
791
NZUS59 KLOT 030112
HRRLOT

CHICAGO AREA WEATHER ROUNDUP
NATIONAL WEATHER SERVICE CHICAGO/ROMEOVILLE IL
700 PM CST FRI DEC 02 2016

NOTE: "FAIR" INDICATES FEW OR NO CLOUDS BELOW 12,000 FEET WITH NO
SIGNIFICANT WEATHER AND/OR OBSTRUCTIONS TO VISIBILITY.

* THESE STATIONS ARE NOT UNDER NWS QUALITY CONTROL. THEY ALSO MAY NOT
  REPORT WEATHER SUCH AS PRECIPITATION OR FOG.

ILZ005-006-012>014-019>023-030200-
NORTHEAST ILLINOIS

CITY           SKY/WX    TMP DP  RH WIND       PRES   REMARKS
OHARE          CLOUDY    36  25  64 N8        30.28R
MIDWAY         CLOUDY    38  25  59 W9        30.28R
AURORA         CLOUDY    35  27  72 NW8       30.30R WCI  29
LANSING*       CLOUDY    37  30  75 W6        30.29R
JOLIET*        CLOUDY    38  28  69 NW5       30.30R
WAUKEGAN       CLOUDY    34  23  64 VRB3      30.27R
DUPAGE AIRPORT CLOUDY    35  25  66 W8        30.28R WCI  29
WHEELING       CLOUDY    35  24  64 NW10      30.29R WCI  27
KANKAKEE*      CLOUDY    37  32  81 W5        30.30R
MORRIS*        CLOUDY    37  31  81 CALM      30.29R
LEWIS AIRPORT* CLOUDY    36  29  78 NW9       30.29R
NORTHERLY ISL    N/A     38  26  62 NW5         N/A
$$

WIZ051-052-058>065-066-070>072-030200-
SOUTHEAST WISCONSIN

CITY           SKY/WX    TMP DP  RH WIND       PRES   REMARKS
MILWAUKEE      CLOUDY    35  23  61 NW9       30.26S WCI  28
KENOSHA*       CLOUDY    34  24  67 NW7       30.27R WCI  28
RACINE*        CLOUDY    34  23  64 NW3       30.28R
BURLINGTON     CLOUDY    32  25  74 CALM      30.27R
WEST BEND      CLOUDY    32  27  80 NW6       30.25S WCI  26
$$

INZ001>003-010>013-019-020-030200-
NORTHWEST INDIANA

CITY           SKY/WX    TMP DP  RH WIND       PRES   REMARKS
GARY*          CLOUDY    39  27  60 W12       30.28R
MICHIGAN CITY* NOT AVBL
RENSSELAER*    NOT AVBL
VALPARAISO     CLOUDY    39  28  64 W9        30.28R
$$

LMZ740>746-030200-
SOUTHERN LAKE MICHIGAN

STATION/POSITION TIME  SKY/WX   TEMP WIND        PRES    VSBY
                                AIR  DIR/SP/G
                 (UTC)          (F)  (DEG/KT/KT) (MB)    (MI)
HARRISON CRIB    0040            39  320/ 11/ 12   N/A
BURNHAM HARBOR   0100            38  340/  6/ 11   N/A
CALUMET HARBOR   0036            38  280/  6/  7 1024.6R
BURNS HARBOR     0040            40  290/ 13/ 18 1025.4R
MICHIGAN CITY    0040            38  300/ 13/ 18   N/A
$$

ABBREVIATIONS USED IN REMARKS
   TC - TEMPERATURE IN CELSIUS
  WCI - WIND CHILL INDEX
   HX - HEAT INDEX
  VSB - VISIBILITY
$$




USA.gov is the U.S. government's official web portal to all federal, state and local government web resources and services.